Saint George Island, AK

8:24 AM HDT on August 28, 2016 (GMT -0900)
Saint George

Weather History for PAPB - January, 2013

Change the Weather History Date:

Tuesday, January 8, 2013

  Actual Average Record
Temperature  
Mean Temperature 33 °F -  
Max Temperature 36 °F 29 °F 41 °F (2005)
Min Temperature 30 °F 22 °F 6 °F (2000)
Degree Days  
Heating Degree Days 32    
Moisture  
Dew Point 33 °F    
Average Humidity 94    
Maximum Humidity 100    
Minimum Humidity 73    
Precipitation  
Precipitation 0.00 in - - ()
Sea Level Pressure  
Sea Level Pressure 29.61 in    
Wind  
Wind Speed 19 mph (SSE)    
Max Wind Speed 31 mph    
Max Gust Speed 43 mph    
Visibility 6 miles    
Events Snow    
Averages and records for this station are not official NWS values.
T = Trace of Precipitation, MM = Missing Value Source: NWS Daily Summary

Daily Weather History Graph

Daily Weather History Graph

Search for Another Location

Airport or City:

Trip Planner

Search our weather history database for the weather conditions in past years. The results will help you decide how hot, cold, wet, or windy it might be!

Date:

Astronomy

Jan. 08, 2013 Rise Set
Actual Time 10:49 AM AKST 6:02 PM AKST
Civil Twilight 10:02 AM AKST 6:48 PM AKST
Nautical Twilight 9:13 AM AKST 7:37 PM AKST
Astronomical Twilight 8:28 AM AKST 8:23 PM AKST
Moon 7:35 AM AKST (1/8) 3:17 PM AKST (1/8)
Length of Visible Light 8h 46m
Length of Day
7h 12m
Waning Crescent, 12% of the Moon is Illuminated
Jan 8
Waning Crescent
Jan 11
New
Jan 18
First Quarter
Jan 26
Full
Feb 3
Last Quarter

Hourly Weather History & Observations

Time (AKST) Temp. Windchill Dew Point Humidity Pressure Visibility Wind Dir Wind Speed Gust Speed Precip Events Conditions
12:53 AM 30.9 °F 23.5 °F 26.1 °F 82% 29.83 in 10.0 mi South 8.1 mph - N/A   Overcast
1:53 AM 33.1 °F 25.5 °F 28.0 °F 82% 29.83 in 8.0 mi South 9.2 mph - N/A   Mostly Cloudy
3:53 AM 34.0 °F 22.4 °F 27.0 °F 75% 29.80 in 10.0 mi South 20.7 mph 24.2 mph N/A   Scattered Clouds
4:53 AM 34.0 °F 23.0 °F 28.0 °F 79% 29.78 in 10.0 mi South 18.4 mph - N/A   Mostly Cloudy
5:53 AM 34.0 °F 21.5 °F 26.1 °F 73% 29.75 in 10.0 mi South 24.2 mph 29.9 mph 0.00 in   Mostly Cloudy
6:37 AM 33.8 °F 22.2 °F 28.4 °F 81% 29.76 in 10.0 mi SSE 20.7 mph 31.1 mph N/A   Mostly Cloudy
6:53 AM 35.1 °F 22.5 °F 28.0 °F 76% 29.72 in 9.0 mi SSE 26.5 mph 35.7 mph 0.00 in Snow Light Snow
7:30 AM 35.6 °F 23.0 °F 28.4 °F 75% 29.73 in 10.0 mi SSE 27.6 mph 33.4 mph 0.00 in   Overcast
7:53 AM 34.0 °F 21.3 °F 28.9 °F 82% 29.70 in 4.0 mi SSE 25.3 mph 42.6 mph 0.00 in Snow Light Snow
8:53 AM 34.0 °F 20.3 °F 30.0 °F 85% 29.69 in 5.0 mi SSE 29.9 mph 41.4 mph 0.00 in Snow Light Snow
9:07 AM 33.8 °F 21.0 °F 30.2 °F 87% 29.72 in 1.8 mi SSE 25.3 mph 38.0 mph 0.00 in Snow Light Snow
9:12 AM 33.8 °F 20.8 °F 30.2 °F 87% 29.71 in 2.0 mi SSE 26.5 mph 32.2 mph 0.00 in Snow Light Snow
9:32 AM 33.8 °F 20.1 °F 30.2 °F 87% 29.70 in 5.0 mi SSE 29.9 mph 36.8 mph 0.00 in Snow Light Snow
9:40 AM 33.8 °F 20.3 °F 32.0 °F 93% 29.70 in 8.0 mi SSE 28.8 mph - 0.00 in Snow Light Snow
9:50 AM 33.8 °F 20.5 °F 32.0 °F 93% 29.70 in 8.0 mi SSE 27.6 mph 39.1 mph 0.00 in Snow Light Snow
9:53 AM 34.0 °F 20.3 °F 32.0 °F 92% 29.66 in 8.0 mi SSE 29.9 mph 39.1 mph 0.00 in   Overcast
10:11 AM 33.8 °F 20.3 °F 32.0 °F 93% 29.69 in 9.0 mi SSE 28.8 mph 42.6 mph 0.00 in Snow Light Snow
10:29 AM 33.8 °F 20.3 °F 32.0 °F 93% 29.69 in 5.0 mi SE 28.8 mph 38.0 mph 0.00 in Snow Light Snow
10:53 AM 34.0 °F 21.5 °F 33.1 °F 96% 29.65 in 9.0 mi SSE 24.2 mph 41.4 mph 0.00 in   Overcast
11:02 AM 35.6 °F 23.0 °F 33.8 °F 93% 29.68 in 7.0 mi SSE 27.6 mph 36.8 mph N/A   Overcast
11:15 AM 35.6 °F 22.5 °F 33.8 °F 93% 29.67 in 5.0 mi SSE 29.9 mph 38.0 mph N/A   Overcast
11:37 AM 35.6 °F 22.3 °F 33.8 °F 93% 29.67 in 4.0 mi SSE 31.1 mph 40.3 mph N/A   Overcast
11:53 AM 35.1 °F 22.0 °F 34.0 °F 96% 29.63 in 8.0 mi SSE 28.8 mph 40.3 mph N/A   Overcast
12:53 PM 35.1 °F 22.0 °F 35.1 °F 100% 29.62 in 6.0 mi SSE 28.8 mph 41.4 mph N/A   Overcast
1:53 PM 36.0 °F 23.5 °F 35.1 °F 97% 29.60 in 5.0 mi SSE 27.6 mph 34.5 mph 0.00 in   Overcast
2:53 PM 35.1 °F 23.3 °F 35.1 °F 100% 29.57 in 7.0 mi SSE 23.0 mph 29.9 mph N/A   Overcast
3:53 PM 36.0 °F 25.3 °F 36.0 °F 100% 29.55 in 5.0 mi SSE 19.6 mph 28.8 mph N/A   Overcast
4:06 PM 35.6 °F 25.2 °F 35.6 °F 100% 29.58 in 2.0 mi SSE 18.4 mph - N/A   Overcast
4:42 PM 35.6 °F 24.2 °F 35.6 °F 100% 29.56 in 4.0 mi SSE 21.9 mph 26.5 mph N/A   Overcast
4:53 PM 36.0 °F 25.6 °F 36.0 °F 100% 29.53 in 3.0 mi SSE 18.4 mph - N/A   Overcast
5:07 PM 35.6 °F 25.2 °F 35.6 °F 100% 29.56 in 2.0 mi SSE 18.4 mph - N/A   Overcast
5:15 PM 35.6 °F 25.2 °F 35.6 °F 100% 29.56 in 1.5 mi SSE 18.4 mph - N/A   Overcast
5:53 PM 36.0 °F 25.0 °F 36.0 °F 100% 29.51 in 1.8 mi SSE 20.7 mph - N/A   Overcast
6:01 PM 35.6 °F 24.5 °F 35.6 °F 100% 29.54 in 3.0 mi SSE 20.7 mph 27.6 mph N/A   Overcast
6:14 PM 35.6 °F 24.2 °F 35.6 °F 100% 29.54 in 2.5 mi SSE 21.9 mph - N/A   Overcast
6:26 PM 35.6 °F 24.2 °F 35.6 °F 100% 29.54 in 4.0 mi SSE 21.9 mph - N/A   Overcast
6:44 PM 35.6 °F 24.2 °F 35.6 °F 100% 29.54 in 9.0 mi South 21.9 mph 31.1 mph N/A   Overcast
6:53 PM 36.0 °F 25.0 °F 36.0 °F 100% 29.51 in 6.0 mi South 20.7 mph 29.9 mph N/A   Overcast
7:53 PM 36.0 °F 26.0 °F 36.0 °F 100% 29.51 in 10.0 mi SSE 17.3 mph - N/A   Overcast
8:27 PM 35.6 °F 27.1 °F 35.6 °F 100% 29.54 in 9.0 mi SSE 12.7 mph - 0.00 in   Overcast
8:37 PM 35.6 °F 27.5 °F 35.6 °F 100% 29.53 in 8.0 mi SSE 11.5 mph - 0.00 in   Overcast
8:49 PM 35.6 °F 28.0 °F 35.6 °F 100% 29.53 in 8.0 mi SSE 10.4 mph - 0.00 in   Overcast
8:53 PM 36.0 °F 28.5 °F 36.0 °F 100% 29.50 in 8.0 mi SSE 10.4 mph - 0.00 in   Overcast
9:09 PM 35.6 °F 29.2 °F 35.6 °F 100% 29.53 in 10.0 mi SSE 8.1 mph - N/A   Overcast
9:23 PM 35.6 °F 28.6 °F 35.6 °F 100% 29.53 in 9.0 mi SSE 9.2 mph - N/A   Overcast
9:35 PM 35.6 °F 28.6 °F 35.6 °F 100% 29.52 in 8.0 mi SE 9.2 mph - N/A   Overcast
9:50 PM 35.6 °F 30.7 °F 35.6 °F 100% 29.53 in 7.0 mi SSE 5.8 mph - N/A   Overcast
9:53 PM 36.0 °F 32.1 °F 36.0 °F 100% 29.49 in 8.0 mi South 4.6 mph - N/A   Overcast
10:32 PM 35.6 °F 31.7 °F 35.6 °F 100% 29.51 in 2.0 mi SSW 4.6 mph - N/A   Overcast
10:49 PM 35.6 °F 30.7 °F 35.6 °F 100% 29.51 in 6.0 mi SSW 5.8 mph - N/A   Overcast
10:53 PM 35.1 °F 30.1 °F 35.1 °F 100% 29.48 in 5.0 mi SSW 5.8 mph - N/A   Overcast
11:53 PM 35.1 °F 28.6 °F 35.1 °F 100% 29.48 in 4.0 mi SSW 8.1 mph - N/A   Overcast